 day,  time,  air_temp(C),  RH(%),  ground_temp10cm(C),  ground_temp20cm(C),  ground_temp40cm(C),  precipitation(mm/h),  Solar_Radiation(MJ/m2h),  lack, 
 06/10/01, 01:00,   9.3,  99,  15.2,  16.1,  16.5,   0.0,  0.00, 
 06/10/01, 02:00,   8.9,  99,  14.8,  16.0,  16.5,   0.0,  0.00, 
 06/10/01, 03:00,   9.4,  99,  14.6,  16.0,  16.4,   0.0,  0.00, 
 06/10/01, 04:00,   8.9,  99,  14.5,  15.9,  16.4,   0.0,  0.00, 
 06/10/01, 05:00,   9.5,  99,  14.4,  15.8,  16.4,   0.0,  0.00, 
 06/10/01, 06:00,   9.4,  99,  14.2,  15.7,  16.4,   0.0,  0.00, 
 06/10/01, 07:00,  11.3,  89,  14.0,  15.6,  16.5,   0.0,  0.13, 
 06/10/01, 08:00,  12.0,  91,  14.1,  15.6,  16.6,   0.0,  0.37, 
 06/10/01, 09:00,  13.4,  85,  14.2,  15.5,  16.6,   0.0,  0.53, 
 06/10/01, 10:00,  14.7,  83,  14.4,  15.4,  16.5,   0.0,  1.42, 
 06/10/01, 11:00,  16.4,  78,  14.8,  15.3,  16.4,   0.0,  2.03, 
 06/10/01, 12:00,  14.5,  93,  15.4,  15.3,  16.4,   0.0,  1.01, 
 06/10/01, 13:00,  13.6,  99,  15.6,  15.3,  16.5,   0.0,  0.54, 
 06/10/01, 14:00,  13.2,  99,  15.7,  15.4,  16.4,   0.5,  0.32, 
 06/10/01, 15:00,  12.8,  99,  15.7,  15.5,  16.4,   0.5,  0.19, 
 06/10/01, 16:00,  12.6,  99,  15.7,  15.6,  16.4,   1.5,  0.08, 
 06/10/01, 17:00,  12.1,  99,  15.6,  15.6,  16.4,   0.5,  0.03, 
 06/10/01, 18:00,  11.7,  99,  15.6,  15.6,  16.3,   1.5,  0.00, 
 06/10/01, 19:00,  11.5,  99,  15.4,  15.7,  16.3,   3.5,  0.00, 
 06/10/01, 20:00,  11.5,  99,  15.2,  15.7,  16.4,   2.5,  0.00, 
 06/10/01, 21:00,  11.1,  99,  15.1,  15.7,  16.4,   1.0,  0.00, 
 06/10/01, 22:00,  11.2,  99,  15.0,  15.6,  16.3,   1.0,  0.00, 
 06/10/01, 23:00,  11.2,  99,  14.8,  15.6,  16.3,   3.0,  0.00, 
 06/10/02, 00:00,  11.0,  99,  14.8,  15.6,  16.4,   4.5,  0.00, 
 06/10/02, 01:00,  11.3,  99,  14.5,  15.5,  16.3,   2.5,  0.00, 
 06/10/02, 02:00,  11.3,  99,  14.5,  15.5,  16.3,   2.5,  0.00, 
 06/10/02, 03:00,  11.2,  99,  14.4,  15.4,  16.1,   3.5,  0.00, 
 06/10/02, 04:00,  11.3,  99,  14.3,  15.3,  16.1,   1.0,  0.00, 
 06/10/02, 05:00,  11.3,  99,  14.2,  15.2,  16.1,   1.0,  0.00, 
 06/10/02, 06:00,  11.1,  99,  14.1,  15.2,  16.3,   8.0,  0.00, 
 06/10/02, 07:00,  11.6,  99,  14.0,  15.2,  16.2,   5.0,  0.01, 
 06/10/02, 08:00,  11.9,  99,  13.8,  15.0,  16.1,   6.5,  0.16, 
 06/10/02, 09:00,  12.1,  99,  13.8,  14.8,  16.0,   2.0,  0.33, 
 06/10/02, 10:00,  12.5,  99,  13.8,  14.7,  16.1,   4.0,  0.33, 
 06/10/02, 11:00,  12.5,  99,  14.0,  14.8,  16.0,   3.5,  0.33, 
 06/10/02, 12:00,  14.0,  99,  14.1,  14.6,  15.9,   0.5,  0.66, 
 06/10/02, 13:00,  14.2,  99,  14.4,  14.7,  15.9,   0.5,  0.68, 
 06/10/02, 14:00,  13.9,  99,  14.5,  14.6,  15.8,   3.0,  0.26, 
 06/10/02, 15:00,  13.8,  99,  14.6,  14.6,  15.9,   2.5,  0.26, 
 06/10/02, 16:00,  13.7,  99,  14.7,  14.6,  15.8,   1.0,  0.16, 
 06/10/02, 17:00,  13.6,  99,  14.8,  14.6,  15.7,   0.0,  0.13, 
 06/10/02, 18:00,  13.4,  99,  14.9,  14.8,  15.7,   0.0,  0.00, 
 06/10/02, 19:00,  13.1,  99,  14.8,  14.7,  15.7,   0.5,  0.00, 
 06/10/02, 20:00,  12.8,  99,  14.8,  14.7,  15.7,   0.0,  0.00, 
 06/10/02, 21:00,  12.8,  99,  14.6,  14.8,  15.7,   0.0,  0.00, 
 06/10/02, 22:00,  12.6,  99,  14.6,  14.8,  15.7,   0.0,  0.00, 
 06/10/02, 23:00,  12.3,  99,  14.5,  14.8,  15.7,   0.0,  0.00, 
 06/10/03, 00:00,  11.8,  99,  14.5,  14.8,  15.7,   0.0,  0.00, 
 06/10/03, 01:00,  11.8,  99,  14.5,  14.8,  15.7,   0.0,  0.00, 
 06/10/03, 02:00,  11.4,  99,  14.5,  14.8,  15.7,   0.0,  0.00, 
 06/10/03, 03:00,  11.3,  99,  14.4,  14.9,  15.8,   0.0,  0.00, 
 06/10/03, 04:00,  11.2,  99,  14.3,  14.9,  15.7,   0.5,  0.00, 
 06/10/03, 05:00,  10.8,  99,  14.3,  14.8,  15.7,   0.0,  0.00, 
 06/10/03, 06:00,  10.5,  99,  14.2,  14.7,  15.7,   0.0,  0.00, 
 06/10/03, 07:00,  10.6,  99,  14.2,  14.8,  15.7,   0.0,  0.00, 
 06/10/03, 08:00,  11.1,  99,  14.1,  14.8,  15.7,   0.0,  0.20, 
 06/10/03, 09:00,  11.4,  99,  14.1,  14.7,  15.8,   0.5,  0.35, 
 06/10/03, 10:00,  11.4,  99,  14.2,  14.7,  15.7,   0.0,  0.49, 
 06/10/03, 11:00,  11.7,  99,  14.3,  14.7,  15.6,   0.0,  0.53, 
 06/10/03, 12:00,  12.4,  99,  14.5,  14.8,  15.6,   0.0,  0.79, 
 06/10/03, 13:00,  13.0,  99,  14.7,  14.8,  15.6,   0.0,  0.82, 
 06/10/03, 14:00,  13.3,  99,  14.9,  14.7,  15.6,   0.0,  1.11, 
 06/10/03, 15:00,  14.6,  99,  15.1,  14.8,  15.6,   0.0,  1.03, 
 06/10/03, 16:00,  14.7,  97,  15.4,  14.9,  15.7,   0.0,  1.02, 
 06/10/03, 17:00,  13.8,  99,  15.4,  14.8,  15.6,   0.0,  0.42, 
 06/10/03, 18:00,  12.5,  99,  15.4,  15.0,  15.6,   0.0,  0.09, 
 06/10/03, 19:00,  11.9,  99,  15.2,  15.1,  15.7,   0.0,  0.00, 
 06/10/03, 20:00,  11.9,  99,  15.0,  15.1,  15.7,   0.0,  0.00, 
 06/10/03, 21:00,  12.1,  99,  14.9,  15.1,  15.7,   0.0,  0.00, 
 06/10/03, 22:00,  11.1,  99,  14.7,  15.1,  15.6,   0.0,  0.00, 
 06/10/03, 23:00,  11.2,  99,  14.6,  15.1,  15.7,   0.0,  0.00, 
 06/10/04, 00:00,  12.1,  99,  14.4,  15.0,  15.6,   0.0,  0.00, 
 06/10/04, 01:00,  11.2,  99,  14.3,  15.0,  15.6,   0.0,  0.00, 
 06/10/04, 02:00,  10.9,  99,  14.2,  15.0,  15.6,   0.0,  0.00, 
 06/10/04, 03:00,  11.3,  99,  14.0,  14.9,  15.6,   0.0,  0.00, 
 06/10/04, 04:00,  10.4,  99,  13.9,  14.9,  15.6,   0.0,  0.00, 
 06/10/04, 05:00,  11.1,  99,  13.8,  14.8,  15.6,   0.5,  0.00, 
 06/10/04, 06:00,  11.2,  99,  13.7,  14.7,  15.6,   0.0,  0.00, 
 06/10/04, 07:00,  11.6,  99,  13.6,  14.8,  15.7,   0.0,  0.12, 
 06/10/04, 08:00,  13.2,  99,  13.6,  14.6,  15.7,   0.0,  0.67, 
 06/10/04, 09:00,  14.5,  95,  13.7,  14.6,  15.6,   0.0,  1.11, 
 06/10/04, 10:00,  16.4,  97,  14.0,  14.5,  15.7,   0.0,  1.77, 
 06/10/04, 11:00,  16.8,  91,  14.6,  14.6,  15.6,   0.0,  2.03, 
 06/10/04, 12:00,  16.3,  94,  15.3,  14.6,  15.7,   0.0,  1.32, 
 06/10/04, 13:00,  17.4,  92,  15.8,  14.7,  15.7,   0.0,  1.01, 
 06/10/04, 14:00,  17.3,  92,  16.1,  14.8,  15.7,   0.0,  1.27, 
 06/10/04, 15:00,  18.0,  86,  16.3,  15.0,  15.7,   0.0,  1.41, 
 06/10/04, 16:00,  17.0,  92,  16.5,  15.1,  15.7,   0.0,  0.94, 
 06/10/04, 17:00,  15.7,  96,  16.6,  15.2,  15.7,   0.0,  0.60, 
 06/10/04, 18:00,  14.1,  99,  16.5,  15.4,  15.7,   0.0,  0.02, 
 06/10/04, 19:00,  12.8,  99,  16.3,  15.5,  15.7,   0.0,  0.00, 
 06/10/04, 20:00,  13.8,  99,  16.0,  15.5,  15.7,   0.0,  0.00, 
 06/10/04, 21:00,  14.0,  99,  15.8,  15.6,  15.6,   0.0,  0.00, 
 06/10/04, 22:00,  13.7,  99,  15.7,  15.6,  15.6,   0.0,  0.00, 
 06/10/04, 23:00,  13.1,  99,  15.6,  15.6,  15.7,   0.0,  0.00, 
 06/10/05, 00:00,  13.4,  99,  15.5,  15.6,  15.7,   0.0,  0.00, 
 06/10/05, 01:00,  13.4,  99,  15.4,  15.6,  15.7,   0.0,  0.00, 
 06/10/05, 02:00,  13.2,  99,  15.3,  15.6,  15.7,   0.0,  0.00, 
 06/10/05, 03:00,  13.0,  99,  15.2,  15.5,  15.7,   0.0,  0.00, 
 06/10/05, 04:00,  12.7,  99,  15.1,  15.5,  15.7,   0.0,  0.00, 
 06/10/05, 05:00,  12.6,  99,  15.0,  15.4,  15.7,   0.0,  0.00, 
 06/10/05, 06:00,  13.1,  99,  15.0,  15.3,  15.7,   0.0,  0.00, 
 06/10/05, 07:00,  12.8,  99,  14.9,  15.3,  15.7,   0.0,  0.09, 
 06/10/05, 08:00,  13.9,  99,  14.8,  15.4,  15.8,   0.0,  0.34, 
 06/10/05, 09:00,  15.1,  98,  14.9,  15.4,  15.8,   0.0,  0.60, 
 06/10/05, 10:00,  16.5,  93,  15.1,  15.3,  15.8,   0.0,  0.96, 
 06/10/05, 11:00,  16.5,  89,  15.4,  15.3,  15.8,   0.0,  0.88, 
 06/10/05, 12:00,  16.6,  94,  15.7,  15.3,  15.7,   0.0,  0.92, 
 06/10/05, 13:00,  16.8,  93,  15.9,  15.4,  15.8,   0.0,  0.63, 
 06/10/05, 14:00,  15.3,  99,  16.1,  15.4,  15.8,   0.0,  0.39, 
 06/10/05, 15:00,  14.6,  99,  16.2,  15.5,  15.8,   1.5,  0.25, 
 06/10/05, 16:00,  14.5,  99,  16.2,  15.5,  15.8,   2.0,  0.18, 
 06/10/05, 17:00,  14.3,  99,  16.1,  15.6,  15.7,   0.0,  0.05, 
 06/10/05, 18:00,  14.0,  99,  16.1,  15.6,  15.8,   0.5,  0.00, 
 06/10/05, 19:00,  13.3,  99,  16.0,  15.6,  15.8,   0.0,  0.00, 
 06/10/05, 20:00,  13.0,  99,  15.8,  15.6,  15.8,   0.0,  0.00, 
 06/10/05, 21:00,  12.7,  99,  15.7,  15.6,  15.6,   0.5,  0.00, 
 06/10/05, 22:00,  11.8,  99,  15.6,  15.6,  15.7,   0.5,  0.00, 
 06/10/05, 23:00,  11.9,  99,  15.5,  15.6,  15.8,   0.0,  0.00, 
 06/10/06, 00:00,  12.2,  99,  15.3,  15.6,  15.7,   0.0,  0.00, 
 06/10/06, 01:00,  12.2,  99,  15.2,  15.6,  15.6,   1.0,  0.00, 
 06/10/06, 02:00,  12.2,  99,  15.1,  15.6,  15.7,   0.5,  0.00, 
 06/10/06, 03:00,  12.3,  99,  15.0,  15.6,  15.8,   2.0,  0.00, 
 06/10/06, 04:00,  12.3,  99,  14.9,  15.5,  15.8,   3.0,  0.00, 
 06/10/06, 05:00,  12.2,  99,  14.8,  15.5,  15.8,   1.5,  0.00, 
 06/10/06, 06:00,  12.1,  99,  14.7,  15.4,  15.8,   3.0,  0.00, 
 06/10/06, 07:00,  12.0,  99,  14.6,  15.4,  15.9,   2.5,  0.00, 
 06/10/06, 08:00,  12.1,  99,  14.5,  15.3,  15.8,   1.5,  0.00, 
 06/10/06, 09:00,  12.1,  99,  14.5,  15.3,  15.8,   4.5,  0.08, 
 06/10/06, 10:00,  12.3,  99,  14.4,  15.2,  15.8,   2.0,  0.27, 
 06/10/06, 11:00,  12.4,  99,  14.4,  15.1,  15.7,   1.5,  0.33, 
 06/10/06, 12:00,  12.3,  99,  14.5,  15.1,  15.6,   2.0,  0.32, 
 06/10/06, 13:00,  12.3,  99,  14.5,  15.1,  15.8,   2.5,  0.18, 
 06/10/06, 14:00,  12.8,  99,  14.5,  15.0,  15.7,   1.0,  0.35, 
 06/10/06, 15:00,  12.7,  99,  14.6,  15.0,  15.7,   1.5,  0.36, 
 06/10/06, 16:00,  12.7,  99,  14.7,  14.9,  15.6,   1.0,  0.29, 
 06/10/06, 17:00,  13.0,  99,  14.7,  15.0,  15.6,   0.5,  0.17, 
 06/10/06, 18:00,  12.2,  99,  14.8,  15.0,  15.7,   0.0,  0.00, 
 06/10/06, 19:00,  11.6,  99,  14.7,  15.0,  15.7,   0.0,  0.00, 
 06/10/06, 20:00,  11.2,  99,  14.7,  15.0,  15.5,   0.0,  0.00, 
 06/10/06, 21:00,  10.6,  99,  14.6,  15.0,  15.7,   0.0,  0.00, 
 06/10/06, 22:00,  10.5,  99,  14.5,  15.0,  15.7,   0.0,  0.00, 
 06/10/06, 23:00,  10.0,  99,  14.4,  15.0,  15.6,   0.0,  0.00, 
 06/10/07, 00:00,   9.5,  99,  14.3,  14.9,  15.6,   0.0,  0.00, 
 06/10/07, 01:00,   9.3,  99,  14.1,  14.9,  15.7,   0.0,  0.00, 
 06/10/07, 02:00,   8.9,  99,  14.0,  14.9,  15.6,   0.0,  0.00, 
 06/10/07, 03:00,   8.4,  99,  13.9,  14.7,  15.5,   0.5,  0.00, 
 06/10/07, 04:00,   8.4,  99,  13.8,  14.8,  15.7,   0.0,  0.00, 
 06/10/07, 05:00,   8.3,  99,  13.7,  14.8,  15.7,   0.0,  0.00, 
 06/10/07, 06:00,   8.6,  99,  13.5,  14.7,  15.6,   0.5,  0.00, 
 06/10/07, 07:00,   8.5,  99,  13.4,  14.5,  15.4,   0.0,  0.04, 
 06/10/07, 08:00,   9.3,  99,  13.3,  14.5,  15.6,   0.0,  0.56, 
 06/10/07, 09:00,  10.4,  98,  13.3,  14.5,  15.6,   0.0,  1.20, 
 06/10/07, 10:00,  10.1,  96,  13.4,  14.5,  15.6,   0.0,  1.15, 
 06/10/07, 11:00,  10.7,  95,  13.6,  14.4,  15.6,   0.0,  1.35, 
 06/10/07, 12:00,   9.7,  99,  13.8,  14.4,  15.6,   0.5,  0.92, 
 06/10/07, 13:00,   9.2,  99,  13.9,  14.3,  15.4,   0.5,  0.50, 
 06/10/07, 14:00,   8.6,  99,  13.9,  14.4,  15.4,   1.0,  0.54, 
 06/10/07, 15:00,   8.1,  99,  13.9,  14.4,  15.3,   1.0,  0.49, 
 06/10/07, 16:00,   7.3,  99,  13.7,  14.4,  15.3,   1.0,  0.25, 
 06/10/07, 17:00,   6.9,  99,  13.6,  14.4,  15.3,   1.0,  0.06, 
 06/10/07, 18:00,   7.0,  99,  13.3,  14.4,  15.4,   0.0,  0.00, 
 06/10/07, 19:00,   6.9,  99,  13.1,  14.3,  15.4,   0.5,  0.00, 
 06/10/07, 20:00,   6.9,  99,  12.9,  14.3,  15.4,   0.0,  0.00, 
 06/10/07, 21:00,   7.2,  99,  12.7,  14.1,  15.4,   1.0,  0.00, 
 06/10/07, 22:00,   7.0,  99,  12.5,  14.1,  15.3,   1.5,  0.00, 
 06/10/07, 23:00,   7.0,  99,  12.3,  14.0,  15.3,   1.0,  0.00, 
 06/10/08, 00:00,   6.8,  99,  12.2,  13.9,  15.3,   2.0,  0.00, 
 06/10/08, 01:00,   6.6,  99,  12.0,  13.8,  15.4,   1.0,  0.00, 
 06/10/08, 02:00,   6.4,  99,  11.9,  13.7,  15.3,   0.5,  0.00, 
 06/10/08, 03:00,   6.4,  99,  11.8,  13.6,  15.2,   2.5,  0.00, 
 06/10/08, 04:00,   5.8,  99,  11.6,  13.6,  15.2,   1.5,  0.00, 
 06/10/08, 05:00,   5.9,  99,  11.5,  13.5,  15.2,   1.0,  0.00, 
 06/10/08, 06:00,   5.6,  99,  11.3,  13.4,  15.2,   1.0,  0.00, 
 06/10/08, 07:00,   5.7,  99,  11.2,  13.2,  15.0,   0.0,  0.00, 
 06/10/08, 08:00,   5.8,  99,  11.1,  13.2,  15.0,   1.0,  0.08, 
 06/10/08, 09:00,   6.2,  99,  11.0,  13.1,  15.2,   1.5,  0.18, 
 06/10/08, 10:00,   6.4,  99,  10.9,  13.0,  15.1,   1.0,  0.42, 
 06/10/08, 11:00,   6.4,  99,  10.9,  13.0,  15.1,   0.0,  0.47, 
 06/10/08, 12:00,   7.0,  99,  11.0,  12.9,  15.1,   1.0,  0.39, 
 06/10/08, 13:00,   7.0,  99,  11.0,  12.7,  15.0,   0.5,  0.41, 
 06/10/08, 14:00,   7.2,  99,  11.1,  12.7,  14.9,   1.5,  0.34, 
 06/10/08, 15:00,   6.9,  99,  11.0,  12.6,  14.8,   1.5,  0.26, 
 06/10/08, 16:00,   6.9,  99,  11.0,  12.6,  14.8,   0.5,  0.13, 
 06/10/08, 17:00,   6.6,  99,  11.0,  12.5,  14.9,   0.0,  0.07, 
 06/10/08, 18:00,   6.3,  99,  11.0,  12.5,  14.8,   0.5,  0.00, 
 06/10/08, 19:00,   6.1,  99,  10.9,  12.4,  14.8,   0.5,  0.00, 
 06/10/08, 20:00,   5.6,  99,  10.8,  12.4,  14.6,   0.5,  0.00, 
 06/10/08, 21:00,   5.8,  98,  10.7,  12.4,  14.7,   0.0,  0.00, 
 06/10/08, 22:00,   5.7,  99,  10.6,  12.3,  14.6,   0.0,  0.00, 
 06/10/08, 23:00,   5.9,  99,  10.5,  12.3,  14.5,   0.0,  0.00, 
 06/10/09, 00:00,   5.8,  99,  10.4,  12.2,  14.6,   0.0,  0.00, 
 06/10/09, 01:00,   5.7,  99,  10.4,  12.2,  14.5,   0.0,  0.00, 
 06/10/09, 02:00,   4.6,  99,  10.4,  12.1,  14.5,   0.0,  0.00, 
 06/10/09, 03:00,   4.7,  99,  10.3,  12.1,  14.5,   0.0,  0.00, 
 06/10/09, 04:00,   3.0,  99,  10.1,  12.0,  14.5,   0.0,  0.00, 
 06/10/09, 05:00,   3.2,  99,   9.9,  12.0,  14.5,   0.0,  0.00, 
 06/10/09, 06:00,   3.7,  99,   9.7,  11.9,  14.4,   0.0,  0.00, 
 06/10/09, 07:00,   3.8,  99,   9.6,  11.8,  14.3,   0.0,  0.16, 
 06/10/09, 08:00,   6.8,  94,   9.5,  11.7,  14.3,   0.0,  1.04, 
 06/10/09, 09:00,   7.9,  91,   9.6,  11.8,  14.3,   0.0,  1.74, 
 06/10/09, 10:00,  10.5,  88,   9.7,  11.6,  14.3,   0.0,  2.31, 
 06/10/09, 11:00,  13.1,  82,  10.4,  11.5,  14.2,   0.0,  2.73, 
 06/10/09, 12:00,  13.9,  81,  11.6,  11.6,  14.2,   0.0,  2.89, 
 06/10/09, 13:00,  14.4,  78,  13.0,  11.6,  14.2,   0.0,  2.86, 
 06/10/09, 14:00,  15.5,  66,  14.0,  11.8,  14.1,   0.0,  2.51, 
 06/10/09, 15:00,  15.5,  55,  14.3,  12.0,  14.1,   0.0,  2.00, 
 06/10/09, 16:00,  13.9,  63,  14.2,  12.2,  14.0,   0.0,  1.26, 
 06/10/09, 17:00,  12.6,  64,  14.0,  12.5,  14.0,   0.0,  0.54, 
 06/10/09, 18:00,  10.3,  83,  13.7,  12.7,  14.0,   0.0,  0.01, 
 06/10/09, 19:00,   9.1,  90,  13.4,  12.9,  14.0,   0.0,  0.00, 
 06/10/09, 20:00,   9.5,  92,  13.1,  13.0,  14.1,   0.0,  0.00, 
 06/10/09, 21:00,   9.4,  96,  12.7,  13.0,  14.1,   0.0,  0.00, 
 06/10/09, 22:00,   8.6,  99,  12.5,  13.1,  14.1,   0.0,  0.00, 
 06/10/09, 23:00,   9.0,  99,  12.2,  13.0,  14.1,   0.0,  0.00, 
 06/10/10, 00:00,   8.1,  99,  12.0,  13.0,  14.1,   0.0,  0.00, 
 06/10/10, 01:00,   7.3,  99,  11.8,  13.0,  14.1,   0.0,  0.00, 
 06/10/10, 02:00,   7.1,  99,  11.6,  12.9,  14.1,   0.0,  0.00, 
 06/10/10, 03:00,   7.1,  99,  11.4,  12.9,  14.1,   0.0,  0.00, 
 06/10/10, 04:00,   6.8,  99,  11.3,  12.7,  14.1,   0.0,  0.00, 
 06/10/10, 05:00,   6.7,  99,  11.0,  12.6,  14.0,   0.0,  0.00, 
 06/10/10, 06:00,   6.6,  99,  10.9,  12.5,  14.0,   0.0,  0.00, 
 06/10/10, 07:00,   7.2,  99,  10.7,  12.5,  14.1,   0.0,  0.15, 
 06/10/10, 08:00,  10.4,  97,  10.6,  12.4,  14.1,   0.0,  0.97, 
 06/10/10, 09:00,  11.9,  81,  10.7,  12.4,  14.1,   0.0,  1.69, 
 06/10/10, 10:00,  15.0,  64,  10.8,  12.2,  14.0,   0.0,  2.27, 
 06/10/10, 11:00,  15.4,  71,  11.5,  12.3,  14.0,   0.0,  2.66, 
 06/10/10, 12:00,  16.0,  75,  12.7,  12.3,  14.1,   0.0,  2.80, 
 06/10/10, 13:00,  17.0,  69,  13.9,  12.3,  14.0,   0.0,  2.76, 
 06/10/10, 14:00,  17.2,  67,  14.8,  12.5,  14.0,   0.0,  2.43, 
 06/10/10, 15:00,  16.5,  63,  15.1,  12.6,  14.0,   0.0,  1.95, 
 06/10/10, 16:00,  15.1,  63,  15.0,  12.9,  14.0,   0.5,  1.23, 
 06/10/10, 17:00,  13.6,  71,  14.7,  13.2,  14.0,   0.0,  0.50, 
 06/10/10, 18:00,  11.0,  88,  14.4,  13.3,  14.0,   0.0,  0.01, 
 06/10/10, 19:00,  11.0,  87,  14.1,  13.5,  13.9,   0.0,  0.00, 
 06/10/10, 20:00,  10.9,  88,  13.8,  13.5,  14.0,   0.0,  0.00, 
 06/10/10, 21:00,   9.8,  95,  13.5,  13.6,  14.0,   0.0,  0.00, 
 06/10/10, 22:00,  11.0,  88,  13.3,  13.6,  14.0,   0.0,  0.00, 
 06/10/10, 23:00,  10.6,  90,  13.0,  13.6,  13.9,   0.0,  0.00, 
 06/10/11, 00:00,   9.2,  99,  12.8,  13.5,  14.0,   0.0,  0.00, 
 06/10/11, 01:00,   8.7,  99,  12.6,  13.5,  14.0,   0.0,  0.00, 
 06/10/11, 02:00,   8.4,  99,  12.5,  13.4,  14.0,   0.0,  0.00, 
 06/10/11, 03:00,   8.2,  99,  12.3,  13.4,  14.0,   0.0,  0.00, 
 06/10/11, 04:00,  10.4,  99,  12.2,  13.3,  14.1,   0.0,  0.00, 
 06/10/11, 05:00,  10.4,  99,  12.1,  13.3,  14.0,   0.0,  0.00, 
 06/10/11, 06:00,   9.4,  99,  12.0,  13.2,  14.1,   0.0,  0.00, 
 06/10/11, 07:00,   9.6,  99,  12.0,  13.1,  14.0,   0.0,  0.06, 
 06/10/11, 08:00,  10.7,  99,  12.0,  13.1,  14.0,   0.0,  0.24, 
 06/10/11, 09:00,  11.6,  99,  12.0,  13.0,  14.1,   0.0,  0.35, 
 06/10/11, 10:00,  12.0,  99,  12.1,  13.0,  14.1,   0.0,  0.43, 
 06/10/11, 11:00,  11.7,  99,  12.4,  13.0,  14.1,   0.0,  0.43, 
 06/10/11, 12:00,  11.1,  93,  12.4,  13.0,  14.0,   0.5,  0.53, 
 06/10/11, 13:00,  11.0,  93,  12.6,  13.0,  14.1,   1.5,  0.37, 
 06/10/11, 14:00,  10.4,  99,  12.6,  13.0,  14.1,   2.0,  0.30, 
 06/10/11, 15:00,  10.4,  99,  12.7,  13.0,  14.0,   1.5,  0.26, 
 06/10/11, 16:00,  10.9,  99,  12.8,  13.0,  14.2,   0.0,  0.15, 
 06/10/11, 17:00,  10.8,  99,  12.8,  13.1,  14.1,   0.0,  0.11, 
 06/10/11, 18:00,  10.6,  99,  12.6,  13.1,  14.1,   0.0,  0.00, 
 06/10/11, 19:00,  11.6,  99,  12.6,  13.1,  14.1,   0.0,  0.00, 
 06/10/11, 20:00,  11.1,  99,  12.5,  13.1,  14.0,   0.0,  0.00, 
 06/10/11, 21:00,  10.2,  99,  12.4,  13.1,  14.0,   0.0,  0.00, 
 06/10/11, 22:00,  10.7,  99,  12.3,  13.1,  13.9,   0.0,  0.00, 
 06/10/11, 23:00,   9.5,  99,  12.1,  13.1,  14.0,   0.0,  0.00, 
 06/10/12, 00:00,   9.7,  99,  12.0,  13.0,  14.0,   0.0,  0.00, 
 06/10/12, 01:00,   9.6,  99,  12.0,  13.0,  14.0,   0.0,  0.00, 
 06/10/12, 02:00,   9.1,  99,  11.8,  13.0,  14.0,   0.0,  0.00, 
 06/10/12, 03:00,   8.5,  99,  11.6,  12.9,  13.9,   0.0,  0.00, 
 06/10/12, 04:00,   8.5,  99,  11.5,  12.9,  13.9,   0.0,  0.00, 
 06/10/12, 05:00,   9.0,  98,  11.4,  12.7,  14.0,   0.0,  0.00, 
 06/10/12, 06:00,   6.7,  99,  11.2,  12.7,  14.0,   0.0,  0.00, 
 06/10/12, 07:00,  11.8,  56,  11.1,  12.6,  13.9,   0.0,  0.05, 
 06/10/12, 08:00,  12.2,  72,  11.0,  12.5,  13.9,   0.0,  0.70, 
 06/10/12, 09:00,  15.0,  67,  10.9,  12.5,  14.0,   0.0,  1.71, 
 06/10/12, 10:00,  15.3,  66,  11.1,  12.5,  14.1,   0.5,  1.93, 
 06/10/12, 11:00,  14.4,  95,  11.7,  12.4,  13.9,   0.0,  2.14, 
 06/10/12, 12:00,  17.6,  57,  12.7,  12.4,  14.1,   0.0,  2.70, 
 06/10/12, 13:00,  18.3,  53,  13.8,  12.5,  14.0,   0.0,  2.62, 
 06/10/12, 14:00,  16.8,  62,  14.6,  12.6,  13.9,   0.0,  2.29, 
 06/10/12, 15:00,  16.4,  56,  15.0,  12.8,  13.9,   0.0,  1.85, 
 06/10/12, 16:00,  15.0,  64,  14.9,  13.0,  14.0,   0.0,  1.14, 
 06/10/12, 17:00,  13.7,  65,  14.7,  13.2,  13.8,   0.0,  0.43, 
 06/10/12, 18:00,  10.6,  81,  14.4,  13.4,  13.9,   0.0,  0.01, 
 06/10/12, 19:00,  12.8,  60,  14.1,  13.5,  13.8,   0.0,  0.00, 
 06/10/12, 20:00,   8.8,  80,  13.7,  13.5,  13.9,   0.0,  0.00, 
 06/10/12, 21:00,   8.0,  83,  13.4,  13.6,  13.9,   0.0,  0.00, 
 06/10/12, 22:00,   7.6,  84,  13.1,  13.6,  13.8,   0.0,  0.00, 
 06/10/12, 23:00,   7.4,  86,  12.7,  13.5,  13.9,   0.0,  0.00, 
 06/10/13, 00:00,   7.6,  84,  12.4,  13.5,  13.9,   0.0,  0.00, 
 06/10/13, 01:00,   6.4,  83,  12.1,  13.4,  13.9,   0.0,  0.00, 
 06/10/13, 02:00,   5.9,  85,  11.9,  13.3,  13.9,   0.0,  0.00, 
 06/10/13, 03:00,   8.9,  71,  11.6,  13.2,  13.9,   0.0,  0.00, 
 06/10/13, 04:00,   6.9,  83,  11.4,  13.1,  14.0,   0.0,  0.00, 
 06/10/13, 05:00,   9.6,  68,  11.3,  13.0,  13.9,   0.0,  0.00, 
 06/10/13, 06:00,   6.4,  85,  11.1,  12.9,  14.0,   0.0,  0.00, 
 06/10/13, 07:00,   8.2,  84,  10.9,  12.8,  14.0,   0.0,  0.13, 
 06/10/13, 08:00,   9.4,  88,  10.7,  12.6,  14.0,   0.0,  0.91, 
 06/10/13, 09:00,  10.4,  84,  10.8,  12.5,  14.0,   0.0,  1.66, 
 06/10/13, 10:00,  13.2,  79,  10.9,  12.5,  14.0,   0.0,  2.24, 
 06/10/13, 11:00,  12.1,  89,  11.6,  12.5,  14.1,   0.0,  2.52, 
 06/10/13, 12:00,  13.5,  86,  12.6,  12.4,  14.0,   0.0,  2.72, 
 06/10/13, 13:00,  12.7,  86,  13.7,  12.5,  14.0,   0.0,  2.31, 
 06/10/13, 14:00,  13.6,  80,  14.3,  12.6,  13.9,   0.0,  1.60, 
 06/10/13, 15:00,  12.0,  86,  14.5,  12.7,  13.9,   0.0,  1.31, 
 06/10/13, 16:00,  10.9,  86,  14.5,  12.9,  14.0,   0.0,  0.55, 
 06/10/13, 17:00,  10.2,  89,  14.4,  13.1,  13.9,   0.0,  0.15, 
 06/10/13, 18:00,   9.6,  87,  14.3,  13.2,  13.9,   0.0,  0.00, 
 06/10/13, 19:00,   9.0,  95,  14.0,  13.4,  13.9,   0.0,  0.00, 
 06/10/13, 20:00,   7.5,  99,  13.8,  13.4,  13.9,   0.0,  0.00, 
 06/10/13, 21:00,   6.9,  99,  13.5,  13.5,  13.8,   0.0,  0.00, 
 06/10/13, 22:00,   6.9,  99,  13.2,  13.5,  13.9,   0.0,  0.00, 
 06/10/13, 23:00,   7.6,  99,  13.0,  13.5,  13.9,   0.0,  0.00, 
 06/10/14, 00:00,   7.3,  99,  12.6,  13.4,  13.9,   0.0,  0.00, 
 06/10/14, 01:00,   8.5,  99,  12.5,  13.4,  13.9,   0.0,  0.00, 
 06/10/14, 02:00,   8.4,  99,  12.2,  13.3,  13.9,   0.0,  0.00, 
 06/10/14, 03:00,   9.0,  99,  12.0,  13.3,  13.9,   0.0,  0.00, 
 06/10/14, 04:00,   9.6,  96,  12.0,  13.2,  13.9,   0.0,  0.00, 
 06/10/14, 05:00,   8.9,  99,  11.9,  13.1,  13.9,   0.0,  0.00, 
 06/10/14, 06:00,   8.8,  99,  11.9,  13.1,  13.9,   0.0,  0.00, 
 06/10/14, 07:00,   9.9,  99,  11.8,  13.0,  13.9,   0.0,  0.03, 
 06/10/14, 08:00,  11.1,  97,  11.7,  12.9,  13.9,   0.0,  0.52, 
 06/10/14, 09:00,  12.7,  89,  11.9,  12.9,  13.8,   0.0,  1.45, 
 06/10/14, 10:00,  11.7,  94,  12.2,  12.8,  13.8,   0.0,  1.38, 
 06/10/14, 11:00,  11.5,  91,  12.4,  12.7,  13.7,   0.0,  0.54, 
 06/10/14, 12:00,  12.7,  86,  12.8,  12.8,  13.9,   0.0,  1.04, 
 06/10/14, 13:00,  13.2,  80,  13.0,  12.9,  13.9,   0.0,  0.99, 
 06/10/14, 14:00,  14.0,  80,  13.3,  12.9,  13.9,   0.0,  0.81, 
 06/10/14, 15:00,  14.7,  75,  13.4,  13.0,  13.9,   0.0,  1.28, 
 06/10/14, 16:00,  14.1,  79,  13.6,  13.0,  13.9,   0.0,  0.73, 
 06/10/14, 17:00,  11.5,  88,  13.7,  13.1,  13.9,   0.0,  0.41, 
 06/10/14, 18:00,  10.1,  94,  13.6,  13.2,  13.9,   0.0,  0.00, 
 06/10/14, 19:00,   9.9,  96,  13.4,  13.2,  13.9,   0.0,  0.00, 
 06/10/14, 20:00,   8.7,  99,  13.2,  13.3,  13.9,   0.0,  0.00, 
 06/10/14, 21:00,   8.3,  99,  12.9,  13.3,  13.8,   0.0,  0.00, 
 06/10/14, 22:00,   9.2,  99,  12.6,  13.3,  13.8,   0.0,  0.00, 
 06/10/14, 23:00,   8.4,  99,  12.5,  13.3,  13.8,   0.0,  0.00, 
 06/10/15, 00:00,   9.0,  99,  12.3,  13.2,  13.9,   0.0,  0.00, 
 06/10/15, 01:00,   9.1,  99,  12.2,  13.2,  13.9,   0.0,  0.00, 
 06/10/15, 02:00,   8.9,  99,  12.1,  13.1,  13.9,   0.0,  0.00, 
 06/10/15, 03:00,   7.7,  99,  12.1,  13.1,  13.9,   0.0,  0.00, 
 06/10/15, 04:00,   7.8,  99,  12.0,  13.0,  13.9,   0.0,  0.00, 
 06/10/15, 05:00,   7.3,  99,  11.8,  13.0,  13.9,   0.0,  0.00, 
 06/10/15, 06:00,   6.3,  99,  11.6,  12.9,  13.9,   0.0,  0.00, 
 06/10/15, 07:00,   6.3,  99,  11.4,  12.9,  13.9,   0.0,  0.13, 
 06/10/15, 08:00,   9.3,  92,  11.3,  12.7,  13.9,   0.0,  0.89, 
 06/10/15, 09:00,  10.1,  94,  11.3,  12.7,  13.9,   0.0,  1.58, 
 06/10/15, 10:00,  11.5,  92,  11.4,  12.6,  13.9,   0.0,  2.19, 
 06/10/15, 11:00,  12.2,  89,  12.0,  12.5,  13.9,   0.0,  1.87, 
 06/10/15, 12:00,  13.1,  86,  12.5,  12.5,  13.8,   0.0,  2.16, 
 06/10/15, 13:00,  13.9,  79,  13.4,  12.5,  13.8,   0.0,  2.69, 
 06/10/15, 14:00,  13.7,  81,  14.2,  12.6,  13.8,   0.0,  2.41, 
 06/10/15, 15:00,  12.7,  84,  14.6,  12.8,  13.8,   0.0,  1.66, 
 06/10/15, 16:00,  12.5,  86,  14.6,  13.0,  13.8,   0.0,  0.73, 
 06/10/15, 17:00,  10.9,  94,  14.6,  13.2,  13.8,   0.0,  0.31, 
 06/10/15, 18:00,   9.1,  99,  14.4,  13.3,  13.8,   0.0,  0.01, 
 06/10/15, 19:00,   8.8,  99,  14.1,  13.4,  13.8,   0.0,  0.00, 
 06/10/15, 20:00,   8.5,  99,  13.8,  13.5,  13.8,   0.0,  0.00, 
 06/10/15, 21:00,   8.2,  99,  13.6,  13.5,  13.8,   0.0,  0.00, 
 06/10/15, 22:00,   7.5,  98,  13.3,  13.6,  13.8,   0.0,  0.00, 
 06/10/15, 23:00,   7.2,  99,  13.1,  13.5,  13.8,   0.0,  0.00, 
 06/10/16, 00:00,   7.0,  99,  12.7,  13.5,  13.8,   0.0,  0.00, 
 06/10/16, 01:00,   6.2,  99,  12.5,  13.5,  13.8,   0.0,  0.00, 